Regional Weather Roundup
Issued by NWS

Home | Current Version | Previous Version | Graphics & Text | Print | Product List | Glossary On
Versions: 1 2 3 4 5 6 7 8 9 10 11 12 13 14 15 16 17 18 19 20 21 22 23 24 25 26 27 28 29 30 31 32 33 34 35 36 37 38 39 40 41 42 43 44 45 46 47 48 49 50
000
ASUS43 KOAX 280502
RWRNE

WEATHER ROUNDUP FOR NEBRASKA
NATIONAL WEATHER SERVICE OMAHA NE
1200 AM CDT FRI APR 28 2017

NOTES: SATELLITE DATA IS BEING USED TO AUGMENT CLOUD COVER ABOVE
       12000 FEET.
       "FAIR" INDICATES FEW OR NO CLOUDS BELOW 12,000 FEET WITH NO
       SIGNIFICANT WEATHER AND/OR OBSTRUCTIONS TO VISIBILITY.

  * THESE STATIONS DO NOT REPORT WEATHER SUCH AS RAIN...SNOW OR FOG.

NEZ001>004-019>022-054>056-280600-
NEBRASKA PANHANDLE

CITY           SKY/WX    TMP DP  RH WIND       PRES   REMARKS
SCOTTSBLUFF    CLOUDY    43  39  86 SE7       29.62R
ALLIANCE       CLOUDY    41  39  93 SE12      29.63R
CHADRON        LGT RAIN  41  39  93 NE12      29.67R
KIMBALL        CLOUDY    37  37  97 SW6       29.64S WCI  33
SIDNEY         CLOUDY    40  38  93 E13       29.61R WCI  32
$$

NEZ057>060-069>072-079>082-280600-
SOUTHWEST NEBRASKA

CITY           SKY/WX    TMP DP  RH WIND       PRES   REMARKS
NORTH PLATTE   LGT RAIN  44  43  96 E10       29.67R
IMPERIAL       RAIN      43  40  89 E12       29.62R
LEXINGTON      CLOUDY    45  41  87 E10       29.68S
MCCOOK         LGT RAIN  44  43  96 E17       29.61F
OGALLALA       HVY RAIN  43  41  92 SE9       29.67R
$$

NEZ005>010-023>029-035>040-094-280600-
NORTH CENTRAL NEBRASKA

CITY           SKY/WX    TMP DP  RH WIND       PRES   REMARKS
VALENTINE      LGT RAIN  45  36  70 E12       29.74R
AINSWORTH      DRIZZLE   43  39  86 E12       29.73S
BROKEN BOW     CLOUDY    45  40  82 SE9       29.70R
O`NEILL        CLOUDY    42  32  68 NE12      29.76S
ORD            CLOUDY    45  38  76 E6        29.72S
THEDFORD       LGT RAIN  46  38  75 E10       29.71R
$$

NEZ041-046>049-061>064-073>077-083>087-280600-
SOUTH CENTRAL NEBRASKA

CITY           SKY/WX    TMP DP  RH WIND       PRES   REMARKS
GRAND ISLAND   LGT RAIN  46  44  93 E7        29.73S
AURORA         CLOUDY    46  42  86 E6        29.73S
HASTINGS       CLOUDY    46  42  86 E10       29.71F
HEBRON         CLOUDY    47  45  92 SE7       29.73R
HOLDREGE       CLOUDY    45  41  88 E15       29.68S
KEARNEY *      CLOUDY    46  39  76 E10       29.71R
YORK           CLOUDY    48  43  81 E6        29.74S
$$

NEZ011>018-030>034-042>045-280600-
NORTHEAST NEBRASKA

CITY           SKY/WX    TMP DP  RH WIND       PRES   REMARKS
NORFOLK        PTCLDY    42  33  70 E7        29.77R
ALBION         CLOUDY    47  36  63 E8        29.76S
BLAIR          PTCLDY    47  35  63 NE6       29.77R
FREMONT        MOCLDY    47  34  60 NE3       29.78R
TEKAMAH        CLEAR     40  34  79 N8        29.79R WCI  34
WAYNE          CLEAR     37  34  91 N5        29.79R WCI  33
$$

NEZ050>053-065>068-078-088>093-280600-
SOUTHEAST NEBRASKA

CITY           SKY/WX    TMP DP  RH WIND       PRES   REMARKS
LINCOLN        CLOUDY    51  43  74 CALM      29.77R
OMAHA EPPLEY   MOCLDY    47  36  65 W6        29.77S
BEATRICE       CLOUDY    49  47  92 E3        29.74S
FALLS CITY     CLOUDY    49  47  93 CALM      29.75R
NEBRASKA CITY  CLOUDY    50  43  77 NE3       29.75F
PLATTSMOUTH    CLOUDY    51  33  50 E5        29.77R
$$

NEZ044-045-051>053-067-280600-
OMAHA AREA

CITY           SKY/WX    TMP DP  RH WIND       PRES   REMARKS
OMAHA EPPLEY   MOCLDY    47  36  65 W6        29.77S
BLAIR          PTCLDY    47  35  63 NE6       29.77R
FREMONT        MOCLDY    47  34  60 NE3       29.78R
MILLARD        CLOUDY    54  37  53 CALM      29.77R
OFFUTT AFB     CLOUDY    51  35  55 N5        29.77R
PLATTSMOUTH    CLOUDY    51  33  50 E5        29.77R
WAHOO          CLOUDY    48  36  62 CALM      29.77R
$$




USA.gov is the U.S. government's official web portal to all federal, state and local government web resources and services.